Voltar ao catálogo

RAVAN

AtivoCiênciaPO
NORAD 41849·PAYLOAD·🇺🇸 United States

Lançado Nov 11, 2016 de Vandenberg Space Force Base

Loading…

Próximas Passagens (próximas 24 horas)

TLE

AtualizadoSource: Space-Track

Época: Sep 13, 2026, 23:39 UTC

1 41849U 16067B   26256.98574937  .00080097  00000-0  81947-3 0  9995
2 41849  97.9721 157.4180 0005570  70.3833 289.8025 15.64739668541537

Acompanhe RAVAN em tempo real com AllMySat

Download on the App Store